Content
SEND FEEDBACK

Daily
Averages
Monthly
Summary
Switzerland

GENEVA, SWITZERLAND


Home > Europe > Switzerland
Elevation: 1364 feet     Latitude: 46 15N     Longitude: 006 08E

WEATHER
 
SELECT A DAY
Number of Records: 317,049;   Date Range: 7/1/96 - 12/16/14
 
SHARE

PRINT THIS DATA

[ ← Previous Day ]
WEATHER ALMANAC - AUGUST 27, 2013
[ Next Day → ]
[ °C ]   °F
Weather ElementAverageHighLow
Temperature60.4 °F71.6 °F (3:20 pm)51.8 °F (4:20 am)
Dewpoint53.1 °F55.4 °F (1:50 pm)50 °F (4:50 am)
Humidity76.2 %100 % (4:20 am)40 % (3:00 pm)
Barometer29.94 in30.01 in (11:20 pm)29.87 in (3:00 pm)
Wind Speed3.2 mph9.2 mph (3:20 pm)
Weather ElementAverage
Visibility7.9 mi
Wind DirectionSE (129.8 °)

Weather ElementTotal
Precipitation---
Heating Degree Days3.3 (Base 65)
Growing Degree Days11.7 (Base 50)
Averaged from 66 records on August 27, 2013
WEATHER CONDITIONS BREAKOUT
WIND DIRECTION BREAKOUT
WEATHER BY HOUR - AUGUST 27, 2013
[ °C ]   °F
Local TimeTemperatureDewpointHumidityBarometerVisibilityWind DirectionWind SpeedGust SpeedPrecipitationEventsConditions
12:20 AM57.2 °F53.6 °F88 %29.95 in6.2 miVariable1.2 mphScattered Clouds
12:50 AM57.2 °F53.6 °F88 %29.92 in6.2 miWSW (250°)3.5 mphScattered Clouds
1:00 AM57.0 °F51.0 °F76 %29.93 inWSW (240°)3.5 mph
1:20 AM55.4 °F51.8 °F88 %29.95 inVariable2.3 mphClear
1:50 AM55.4 °F51.8 °F88 %29.92 inCalmClear
2:00 AM54.0 °F51.0 °F88 %29.94 in28.0 miENE (70°)1.2 mphPartly Cloudy
2:20 AM53.6 °F51.8 °F94 %29.92 inCalmClear
2:50 AM53.6 °F51.8 °F94 %29.92 inCalmClear
3:00 AM54.0 °F51.0 °F86 %29.94 inNE (40°)1.2 mph
3:50 AM53.6 °F51.8 °F94 %29.95 inWNW (300°)3.5 mphClear
4:20 AM51.8 °F51.8 °F100 %29.92 in6.2 miCalmScattered Clouds
4:50 AM51.8 °F50.0 °F94 %29.92 in6.2 miCalmMostly Cloudy
5:20 AM51.8 °F50.0 °F94 %29.92 in6.2 miCalmMostly Cloudy
5:50 AM53.6 °F51.8 °F94 %29.92 in6.2 miCalmMostly Cloudy
6:00 AM54.0 °F51.0 °F85 %29.94 inWest (280°)3.5 mph
6:20 AM53.6 °F51.8 °F94 %29.95 in6.2 miWest (260°)2.3 mphMostly Cloudy
6:50 AM55.4 °F51.8 °F88 %29.95 in6.2 miVariable2.3 mphMostly Cloudy
7:00 AM54.0 °F51.0 °F84 %29.94 inWNW (300°)3.5 mph
7:20 AM55.4 °F51.8 °F88 %29.95 in6.2 miVariable1.2 mphMostly Cloudy
7:50 AM55.4 °F51.8 °F88 %29.95 in6.2 miCalmMostly Cloudy
8:20 AM57.2 °F51.8 °F82 %29.95 in6.2 miSW (230°)3.5 mphScattered Clouds
8:50 AM57.2 °F53.6 °F88 %29.95 in6.2 miVariable2.3 mphMostly Cloudy
9:00 AM57.0 °F52.0 °F77 %29.94 inWSW (240°)3.5 mph
9:20 AM57.2 °F53.6 °F88 %29.95 in6.2 miVariable3.5 mphMostly Cloudy
9:50 AM59.0 °F53.6 °F82 %29.95 in6.2 miWSW (240°)3.5 mphMostly Cloudy
10:00 AM59.0 °F52.0 °F71 %29.93 inWSW (250°)3.5 mph
10:20 AM59.0 °F53.6 °F82 %29.95 in6.2 miWest (260°)3.5 mphMostly Cloudy
10:50 AM60.8 °F51.8 °F72 %29.95 in6.2 miWSW (240°)4.6 mphMostly Cloudy
11:20 AM60.8 °F53.6 °F77 %29.95 in6.2 miSW (230°)4.6 mphMostly Cloudy
11:50 AM64.4 °F53.6 °F68 %29.95 in6.2 miSW (220°)5.8 mphMostly Cloudy
12:00 PM65.0 °F53.0 °F55 %29.91 inWSW (240°)4.6 mph
12:20 PM66.2 °F53.6 °F64 %29.95 in6.2 miVariable3.5 mphMostly Cloudy
12:50 PM68.0 °F53.6 °F60 %29.92 in6.2 miSW (220°)6.9 mphMostly Cloudy
1:00 PM67.0 °F51.0 °F47 %29.90 inWest (260°)5.8 mph
1:20 PM68.0 °F53.6 °F60 %29.92 in6.2 miVariable4.6 mphMostly Cloudy
1:50 PM68.0 °F55.4 °F64 %29.92 in6.2 miVariable2.3 mphMostly Cloudy
2:00 PM67.0 °F51.0 °F47 %29.89 in25.0 miSouth (170°)3.5 mphScattered Clouds
2:20 PM69.8 °F55.4 °F60 %29.92 in6.2 miSW (220°)5.8 mphMostly Cloudy
2:50 PM69.8 °F50.0 °F49 %29.92 in6.2 miSSW (210°)8.1 mphScattered Clouds
3:00 PM71.0 °F52.0 °F40 %29.87 inWSW (240°)6.9 mph
3:20 PM71.6 °F53.6 °F53 %29.92 in6.2 miSW (220°)9.2 mphScattered Clouds
3:50 PM68.0 °F53.6 °F60 %29.92 in6.2 miWest (280°)8.1 mphScattered Clouds
4:00 PM65.0 °F52.0 °F52 %29.89 inWNW (290°)5.8 mph
4:20 PM64.4 °F53.6 °F68 %29.92 in6.2 miVariable3.5 mphScattered Clouds
4:50 PM66.2 °F53.6 °F64 %29.92 in6.2 miVariable2.3 mphRainLight Rain Showers
5:00 PM65.0 °F53.0 °F56 %29.90 in22.0 miNorth3.5 mphRainLight Rain Showers
5:20 PM66.2 °F55.4 °F68 %29.92 in6.2 miVariable3.5 mphRainLight Rain Showers
5:50 PM66.2 °F53.6 °F64 %29.92 in6.2 miNorth (350°)3.5 mphMostly Cloudy
6:00 PM65.0 °F53.0 °F56 %29.91 inNNW (330°)3.5 mph
6:20 PM66.2 °F55.4 °F68 %29.95 in6.2 miVariable1.2 mphMostly Cloudy
6:50 PM64.4 °F55.4 °F73 %29.95 in6.2 miNNE (20°)3.5 mphMostly Cloudy
7:00 PM64.0 °F55.0 °F66 %29.92 inEast (80°)3.5 mph
7:20 PM62.6 °F55.4 °F77 %29.95 in6.2 miSSE (150°)6.9 mphMostly Cloudy
7:50 PM60.8 °F55.4 °F82 %29.95 in6.2 miSSE (150°)4.6 mphMostly Cloudy
8:00 PM61.0 °F53.0 °F68 %29.95 in19.0 miSE (130°)3.5 mphScattered Clouds
8:20 PM60.8 °F53.6 °F77 %29.98 in6.2 miVariable2.3 mphMostly Cloudy
8:50 PM60.8 °F55.4 °F82 %29.98 in6.2 miVariable1.2 mphMostly Cloudy
9:00 PM60.0 °F54.0 °F76 %29.96 inSW (230°)4.6 mph
9:20 PM59.0 °F55.4 °F88 %29.98 in6.2 miWSW (240°)4.6 mphMostly Cloudy
9:50 PM59.0 °F55.4 °F88 %29.98 in6.2 miVariable2.3 mphMostly Cloudy
10:00 PM59.0 °F55.0 °F82 %29.98 inWNW (290°)1.2 mph
10:20 PM59.0 °F55.4 °F88 %29.98 in6.2 miCalmMostly Cloudy
10:50 PM59.0 °F55.4 °F88 %29.98 in6.2 miWSW (240°)3.5 mphMostly Cloudy
11:00 PM59.0 °F54.0 °F80 %29.98 in19.0 miSouth (180°)3.5 mphPartly Cloudy
11:20 PM59.0 °F55.4 °F88 %30.01 in6.2 miSouth (180°)3.5 mphMostly Cloudy
11:50 PM59.0 °F55.4 °F88 %30.01 in6.2 miCalmMostly Cloudy
Hourly data recorded from LSGG, located miles away from Geneva, Switzerland







STORIES FROM OUR PARTNERS